Location: Mascot Post Office (historical)
(40.2645°N, 99.5462°W)
Time: 06:41:36
(UTC+00:00)

Cosmos 2056 Rocket - Visible Passes

Search period start: 20 October 2020 00:00
Search period end: 30 October 2020 00:00
Orbit: 743 x 800 km, 74.0° (Epoch: 19 October)

Date Brightness Start Highest point End Pass type
(mag) Time Alt. Az. Time Alt. Az. Time Alt. Az.
20 Oct 5.6 00:52:51 10° WSW 00:57:14 27° WNW 01:01:35 10° N visible
21 Oct 4.8 00:16:01 10° SW 00:20:59 43° WNW 00:25:54 10° N visible
23 Oct 6.1 00:48:14 10° W 00:51:24 16° WNW 00:54:34 10° NNW visible
24 Oct 5.7 00:10:46 10° WSW 00:15:02 25° WNW 00:19:18 10° N visible
27 Oct 6.1 00:06:15 10° W 00:09:14 15° NW 00:12:12 10° NNW visible
